Погода в Скале

Греция     37°19′24″N   26°32′38″E
темп.,
°C
ветер,
м/с
пор.,
м/с
влажн.,
%
обл.,
%
осадки,
мм/ч
давл.,
гПа
погр.,
м
16 мая, вс
вс1600:00+19ююз5777100 0.0 1009197
03:00+19юз67830 0.0 1008377
06:00+18з22830 0.0 1008223
09:00+18з118220 0.0 1009227
12:00+19ссз24805 0.0 1009344
15:00+19сз33761 0.0 1009418
18:00+19зсз77750 0.0 1009383
21:00+19зсз56753 0.0 1010223
17 мая, пн
пн1700:00+19зсз45755 0.0 1011171
03:00+19зсз44784 0.0 1010192
06:00+19с33745 0.0 1010100
09:00+19ссз11748 0.0 101252
12:00+19з22651 0.0 1013174
15:00+20з34625 0.0 1012226
18:00+21юз45703 0.0 1012138
21:00+20юз45750 0.0 101270
18 мая, вт
вт1800:00+19ююз33820 0.0 101267
03:00+19ю33840 0.0 101193
06:00+19ююв44840 0.0 1011131
09:00+19ююв45870 0.0 1012201
12:00+19ююв44880 0.0 1013239
15:00+20ю45880 0.0 1013276
18:00+20ю57880 0.0 1012225
21:00+20ю688899 0.0 1012183
19 мая, ср
ср1900:00+20ююв68875 0.0 1012187
03:00+20ююв67850 0.0 1011175
06:00+20ююв68840 0.0 1010253
09:00+20ююв710860 0.0 1011256
12:00+20ююв68880 0.0 1011231
15:00+20ю45885 0.0 1011149
18:00+20ю458614 0.0 1010143
21:00+20ююв338512 0.0 101035
20 мая, чт
чт2000:00+19юв3386100 0.0 101054
03:00+19вюв34880 0.0 1010118
06:00+19всв11870 0.0 101046
09:00+19с22850 0.0 1011127
12:00+20сз57830 0.0 1013329
15:00+19ссз1316790 0.0 1013620
18:00+18ссз1415770 0.0 1014647
21:00+19ссз1416720 0.0 1015813